Location: Segovia
(40.9481°N, 4.1184°W)
Time: 21:14:11
(UTC+00:00)

Daily predictions for brighter satellites

Satellite Brightness Start Highest point End
(mag) Time Altitude Azimuth Time Altitude Azimuth Time Altitude Azimuth
H-2A R/B 3.0 17:14:23 10° ESE 17:18:37 26° ENE 17:22:47 10° NNE
Cosmos 1862 3.3 17:14:58 10° N 17:18:58 89° E 17:22:57 10° S
Cosmos 1766 Rocket 3.6 17:15:25 10° N 17:19:47 86° W 17:24:09 10° S
ATLAS CENTAUR R/B 3.2 17:19:46 10° WSW 17:23:15 27° NW 17:27:00 10° NNE
Cosmos 2221 2.5 17:20:28 10° S 17:24:40 64° E 17:28:56 10° NNE
FengYun 1-2 T 4.2 17:19:14 10° SSE 17:24:48 70° ENE 17:30:21 10° N
Cosmos 44 3.9 17:24:17 10° NNW 17:28:34 31° NE 17:32:37 10° ESE
COSMO-SKYMED 1 3.8 17:30:42 10° NE 17:34:04 22° E 17:37:27 10° SE
NOAA 12 4.4 17:30:46 10° S 17:36:05 78° WSW 17:41:27 10° NNW
Okean O Rocket 2.8 17:36:23 10° ESE 17:39:39 21° ENE 17:42:56 10° NNE
Meteor 2-19 Rocket 4.4 17:34:04 10° N 17:40:10 73° E 17:46:15 10° SSE
CZ-2C R/B 3.4 17:35:55 10° NE 17:40:26 29° E 17:44:53 10° SSE
ISS -1.4 17:41:09 10° NW 17:42:59 14° N 17:44:49 10° NNE
CZ-4C R/B 4.2 17:41:20 10° NNW 17:46:03 19° NNE 17:49:48 13° ENE
MOS 1-B 4.4 17:45:48 10° SE 17:51:23 54° ENE 17:57:00 10° N
NOAA 6 4.1 17:46:50 10° SSE 17:51:59 83° WSW 17:57:09 10° NNW
Cosmos 1408 Rocket 3.8 17:54:15 10° NNW 17:58:35 70° W 18:02:55 10° S
Cosmos 1782 3.6 17:56:41 10° SSE 18:00:13 31° E 18:02:36 17° NE
GEOS 3 Rocket 4.3 17:56:54 12° ESE 18:01:08 33° NE 18:05:45 10° NNW
Cosmos 1743 Rocket 3.4 17:58:45 10° N 18:03:04 67° E 18:07:21 10° SSE
Cosmos 1763 Rocket 3.3 18:00:56 10° S 18:05:57 74° ESE 18:11:02 10° NNE
Cosmos 841 Rocket 4.2 18:03:10 10° SSE 18:07:43 32° E 18:10:09 21° NE
Cosmos 1697 Rocket 3.1 18:02:57 10° N 18:08:12 39° ENE 18:13:24 10° SE
Cosmos 1937 Rocket 4.1 18:03:51 10° N 18:08:40 34° ENE 18:13:27 10° SE
Lacrosse 5 3.6 18:04:37 10° WNW 18:09:12 34° SW 18:13:46 10° S
Cosmos 1980 Rocket 3.3 18:05:32 10° N 18:09:56 22° NE 18:10:40 22° ENE
Cosmos 1812 4.1 18:08:53 10° SE 18:10:59 21° ESE 18:10:59 21° ESE
CZ-4B DEB 4.5 18:07:14 10° S 18:12:45 73° WSW 18:18:16 10° NNW
Nadezhda 4 Rocket 4.4 18:07:43 10° NNW 18:14:00 70° W 18:20:17 10° S
Cosmos 1340 Rocket 3.0 18:10:01 10° NNW 18:14:05 76° W 18:18:08 10° S
Cosmos 1656 3.6 18:08:37 10° NNW 18:14:11 86° ENE 18:19:48 10° SSE
Cosmos 2082 Rocket 2.9 18:11:38 10° SSE 18:16:37 32° ESE 18:18:33 26° ENE
USA 276 3.4 18:17:32 10° NW 18:19:58 25° N 18:19:58 25° N
Cosmos 1151 Rocket 3.8 18:17:34 10° SSE 18:20:53 29° ESE 18:20:53 29° ESE
COSMOS 2406 3.2 18:16:18 10° S 18:21:58 62° ESE 18:26:02 19° NE
SKYMED 2 3.4 18:17:59 10° NNE 18:22:20 75° E 18:26:40 10° S
Cosmos 1933 3.3 18:18:39 10° S 18:22:42 85° W 18:26:47 10° N
Cosmos 1602 3.6 18:20:09 10° N 18:24:00 69° E 18:27:50 10° SSE
Cosmos 990 Rocket 3.9 18:18:53 10° NNW 18:24:07 85° ENE 18:29:16 10° SSE
Cosmos 1092 Rocket 4.0 18:18:04 10° N 18:24:27 84° E 18:30:47 10° S
Cosmos 1809 Rocket 4.3 18:18:59 10° N 18:25:06 75° E 18:31:10 10° SSE
USA 229 DEB 3.9 18:21:57 10° NNW 18:29:17 63° NE 18:37:02 10° SE
SJ 16-02 4.1 18:26:01 10° NW 18:29:19 21° W 18:32:37 10° SSW
USA 229 3.9 18:22:03 10° NNW 18:29:22 62° NE 18:37:07 10° SE
Meteor 2-21 Rocket 4.5 18:25:51 10° N 18:31:49 52° ENE 18:37:42 10° SSE
Cosmos 1500 Rocket 4.4 18:29:06 10° NNW 18:33:25 51° W 18:37:41 10° SSW
CZ-2D R/B 4.4 18:30:42 10° S 18:34:23 44° W 18:38:05 10° NNW
Cosmos 2142 Rocket 4.4 18:29:36 10° S 18:35:34 58° E 18:41:37 10° NNE
Cosmos 1428 Rocket 4.4 18:30:45 10° N 18:36:53 90° NE 18:43:02 10° S
Meteor 1-26 Rocket 4.3 18:31:21 10° S 18:37:14 83° E 18:43:17 10° N
Cosmos 1627 Rocket 4.5 18:35:58 10° N 18:42:11 84° W 18:48:17 10° S
Cosmos 1805 Rocket 3.8 18:40:01 10° NNW 18:44:20 68° W 18:48:37 10° S
Cosmos 1833 Rocket 3.1 18:43:55 10° SW 18:49:28 62° WNW 18:53:35 18° NNE
NOSS 3-1 (A) 4.1 18:45:03 10° NW 18:52:49 89° NE 19:01:46 10° SSE
CZ-4B R/B 3.7 18:47:34 10° S 18:53:00 60° WSW 18:58:20 10° NNW
Cosmos 2279 Rocket 3.8 18:47:27 10° S 18:53:40 76° E 18:59:53 10° N
GPS 2-04 Rocket1 3.8 18:51:09 10° WSW 18:54:44 35° S 18:54:44 35° S
Cosmos 1814 Rocket 4.1 18:49:48 10° S 18:54:34 52° ESE 18:54:34 52° ESE
Cosmos 2360 4.1 18:49:19 10° NNW 18:55:05 84° ENE 19:00:33 11° SSE
Sich 1 3.3 18:51:05 10° NNW 18:55:20 66° W 18:59:36 10° S
ARGOS 3.4 18:51:30 10° S 18:56:54 71° WSW 19:02:19 10° NNW
H-2A R/B 3.4 18:52:54 10° SSW 18:57:49 39° W 19:02:39 10° NNW
Meteor 1-14 Rocket 4.1 18:53:21 10° N 18:59:09 71° E 19:05:02 10° SSE
Cosmos 1898 Rocket 4.0 18:57:49 10° NNW 19:02:59 59° WSW 19:08:04 10° S
NOSS 2-2 (E) 4.5 18:59:04 10° NNW 19:04:34 61° NE 19:05:40 54° E
Landsat 5 4.3 19:03:51 27° NNW 19:05:46 47° WNW 19:09:40 10° SW
COSMOS 2455 2.7 19:01:21 10° SSW 19:07:22 88° WNW 19:09:04 50° NNE
COSMO-SKYMED 1 4.2 19:06:26 10° N 19:10:16 32° WNW 19:14:07 10° SW
SL-08 RB Rocket 4.0 19:06:59 10° S 19:11:37 66° W 19:16:15 10° NNW
Cosmos 540 Rocket 4.3 19:09:37 10° SW 19:14:31 46° WNW 19:16:54 27° N
ATLAS CENTAUR R/B 3.6 19:07:12 10° WSW 19:15:24 37° NW 19:16:50 31° N
Okean O Rocket 3.0 19:11:36 10° SSW 19:15:44 38° W 19:19:53 10° NNW
Meteor 2-16 Rocket 4.4 19:12:25 10° N 19:18:32 79° W 19:24:39 10° S
CZ-2C R/B 4.1 19:16:04 10° N 19:20:42 33° WNW 19:25:17 10° SW
BREEZE-M DEB (TANK) 4.4 19:03:34 10° SW 19:35:24 78° SE 19:37:06 62° ENE
CZ-4C R/B 3.2 19:28:51 10° NNW 19:35:02 54° NNE 19:35:02 54° NNE
GEOS 3 Rocket 4.5 19:38:03 42° SSW 19:39:00 47° WSW 19:44:02 10° NW
Cosmos 2369 4.3 19:38:39 10° NNW 19:44:13 54° WSW 19:44:27 54° WSW
Cosmos 1697 Rocket 4.4 19:47:11 10° NW 19:51:58 29° WSW 19:56:44 10° SSW
Cosmos 1980 Rocket 3.3 19:48:46 10° NNW 19:52:30 39° NW 19:52:30 39° NW
Cosmos 2082 Rocket 3.5 19:55:22 10° SW 20:00:28 36° WNW 20:00:28 36° WNW
